FENGYUN 1C DEB

Satellite information

Favourite Embed

Satellite Type and Status

DEBRISIN ORBIT

Key statistics

Satellite FENGYUN 1C DEB at a glance.

Uptime

9656

Days in orbit

Revolutions

≈ 14.0

Per day

Orbit

SSO

Sun Synchronous Orbit

Inclination

99.4

Latest

Satellite identification and parameters

Extended collection of information and parameters for FENGYUN 1C DEB.

Object identification

Identified? True

Debris? True

Object name: FENGYUN 1C DEB

International designator: 1999-025AYR

Object number (NORAD): 30903

Object ID (CCSDS): 30903

Country: PEOPLES REPUBLIC OF CHINA (PRC)

Current information (Y/N): Y

RCS size: SMALL

Orbital parameters

Period: 103.037 minutes

Inclination: 99.3767 deg

SMA: 7280.423 km

Apoapsis: 971.6 km

Periapsis: 832.977 km

RAAN: 158.5387 deg

Eccentricy: 0.00952026

Argument of periapsis: 290.5421 deg

Mean anomaly: 68.5546 deg

Mean motion: 13.97551472 rev/day

Mean motion (dot): 0.00000641 rev/day2

B* drag term: 0.00047078176 1/REarth

Two-line elements (TLE)

Creation date: Oct. 2, 2025, 3:26 a.m.

Reference frame: TEME

Reference center: EARTH

Epoch: Oct. 1, 2025, 9:35 a.m. UTC

TLE line 0: 0 FENGYUN 1C DEB

TLE line 1: 1 30903U 99025AYR 25274.39964127 .00000641 00000-0 47078-3 0 9991

TLE line 2: 2 30903 99.3767 158.5387 0095203 290.5421 68.5546 13.97551472676947

Live tracking on map

Real-time ground track for satellite FENGYUN 1C DEB.

In-orbit conjunctions

A list of the most updated potential collisions computed for object FENGYUN 1C DEB.

Target Orbit TCA Probability of collision Miss distance Type
COSMOS 2369 LEO 2025-08-05 12:07:53 0.0008162818 402.0 (m) PAYLOAD
COSMOS 249 DEB LEO 2025-06-06 22:02:06 0.0001261984 227.0 (m) DEBRIS
COSMOS 755 LEO 2025-01-18 11:06:34 0.001000894 228.0 (m) PAYLOAD

Associated space launch

Chinese polar orbiting meteorological satellite

FENGYUN 1C DEB was lifted into orbit during the mission ‘Long March 4B | Feng Yun 1C’, on board a Long March 4B space rocket.

The launch took place on May 10, 1999, 1:33 a.m. from Launch Complex 7.

For more information about the launch, click the button.

Launch to space Long March 4B | Feng Yun 1C
Long March 4B | Feng Yun 1C

Agency: N/A

Status: Launch Successful

Launch date: May 10, 1999, 1:33 a.m. UTC

Rocket: Long March 4B

Launch pad: Launch Complex 7

Location: Taiyuan Satellite Launch Center, People's Republic of China

...

Latest news about this satellite

There are no fresh news available about this satellite. Check back as we update our databases every day.


Newsletter sign-up

Weekly statistics, charts and insights to help you stay on top of the space industry.